Flag for Paraguay Weather past 2 weeks in Asuncion, Paraguay

Now
70 °F

Drizzle. Low clouds.


Feels Like: 70 °F
Forecast: 68 / 78 °F
Wind: 3 mph from Southwest

Location: Asuncion / Aeropuerto

Current Time: Mar 29, 2015 at 7:29:37 AM

Latest Report: Mar 29, 2015 at 7:00 AM


Visibility: 2 mi

Pressure: 29.98 "Hg

Humidity: 100%

Dew point: 70 °F

Location of AsuncionLocation

Historic Weather in Asuncion — Graph

°F

Asuncion temperature yesterday

Maximum temperature yesterday: 75 °F (at 1:00 PM)
Minimum temperature yesterday: 68 °F (at 3:00 AM)
Average temperature yesterday: 71 °F

Past Weeks' High & Low Weather Summary

 TemperatureHumidityPressure
High97 °F (Mar 17, 3:00 PM)100% (Mar 26, 10:00 AM)30.07 "Hg (Mar 26, 10:00 AM)
Low59 °F (Mar 23, 6:00 AM)27% (Mar 22, 2:00 PM)29.71 "Hg (Mar 14, 5:00 PM)
Average79 °F70%29.91 "Hg
* Reported Mar 14 7:00 AM — Mar 29 6:00 AM, Asuncion, Weather by CustomWeather, © 2015

Note: Actual official high and low records may vary slightly from our data, if they occured in-between our weather recording intervals... More about our weather records

Advertising

Asuncion weather history for previous 24 hours

 ConditionsComfort  
Time TempWeatherWind HumidityBarometerVisibility
6:00 AM
Sun, Mar 29
70 °FDrizzle. Low clouds.3 mph94%29.98 "Hg2 mi
5:00 AM70 °FMostly cloudy.2 mph94%29.95 "HgN/A
4:00 AM70 °FPassing clouds.3 mph94%29.95 "HgN/A
2:00 AM70 °FLow clouds.7 mph94%29.98 "HgN/A
1:00 AM70 °FDrizzle. Mostly cloudy.6 mph100%30.01 "HgN/A
12:00 AM70 °FDrizzle. Mostly cloudy.5 mph100%30.01 "Hg5 mi
11:00 PM
Sat, Mar 28
70 °FDrizzle. Mostly cloudy.6 mph100%30.01 "Hg5 mi
10:00 PM72 °FDrizzle. Mostly cloudy.No wind94%30.04 "Hg5 mi
9:00 PM72 °FDrizzle. Mostly cloudy.2 mph100%30.04 "Hg3 mi
8:00 PM72 °FDrizzle. Mostly cloudy.2 mph100%30.01 "Hg5 mi
7:00 PM72 °FDrizzle. Mostly cloudy.2 mph100%30.01 "Hg5 mi
6:00 PM73 °FDrizzle. Mostly cloudy.3 mph94%29.98 "Hg4 mi
5:00 PM73 °FDrizzle. More clouds than sun.No wind94%29.98 "Hg4 mi
4:00 PM73 °FDrizzle. Broken clouds.5 mph94%30.01 "HgN/A
3:00 PM73 °FDrizzle. More clouds than sun.3 mph94%30.01 "Hg4 mi
2:00 PM73 °FDrizzle. More clouds than sun.3 mph94%30.01 "Hg6 mi
1:00 PM75 °FMostly cloudy.5 mph83%30.04 "HgN/A
12:00 PM73 °FMostly cloudy.No wind89%30.04 "HgN/A
11:00 AM72 °FDrizzle. Mostly cloudy.No wind94%30.07 "HgN/A
10:00 AM72 °FDrizzle. Mostly cloudy.No wind94%30.07 "Hg5 mi
9:30 AM72 °FDrizzle. Mostly cloudy.3 mph88%30.07 "Hg5 mi
9:00 AM70 °FDrizzle. More clouds than sun.5 mph94%30.07 "HgN/A
8:30 AM70 °FDrizzle. More clouds than sun.3 mph94%30.07 "HgN/A
8:00 AM70 °FDrizzle. Low clouds.No wind94%30.07 "Hg6 mi
7:30 AM68 °FDrizzle. Low clouds.3 mph100%30.07 "Hg6 mi
7:00 AM68 °FDrizzle. Low clouds.3 mph100%30.07 "Hg2 mi
Weather by CustomWeather, © 2015

See weather overviewHow to use our weather pages